Location: Jackson Park
(37.2862°N, 79.9123°W)
Time: 20:47:03
(UTC+00:00)

Vanguard 3 - Pass Details

Date: 18 May 2026
Orbit: 507 x 3205 km, 33.4° (Epoch: 31 May)

Event Time Altitude Azimuth Distance (km) Brightness Sun altitude
Rises 23:19:16 0° 283° (WNW) 7,156 14.2 11.2°
Reaches altitude 10° 23:24:25 10° 279° (W) 6,080 14.3 10.2°
Maximum altitude 23:41:46 49° 213° (SSW) 3,089 10.3 6.9°
Drops below altitude 10° 23:53:26 10° 142° (SE) 4,191 10.3 4.8°
Sets 23:56:18 0° 137° (SE) 4,866 10.5 4.2°
